Overview Statistics Trail Chart Weather Telemetry Raw packets
 

This is the latest recevied weather packets stored in our database for station/object W0WC. If no packets are shown the sender has not sent any weather packets the latest 10 day(s).

<< 5 6 7 8 9 10 11 >>
Time Temp. Humidity Pressure Rain* Wind** Luminosity Snow
1788651496 37.78° C 34% 1012.6 hPa 0 mm - 47 W/m² -
1788651192 38.33° C 33% 1012.5 hPa 0 mm - 55 W/m² -
1788650891 38.33° C 33% 1012.4 hPa 0 mm - 51 W/m² -
1788650587 38.33° C 33% 1012.4 hPa 0 mm - 105 W/m² -
1788650282 38.33° C 32% 1012.5 hPa 0 mm - 93 W/m² -
1788649977 38.89° C 32% 1012.4 hPa 0 mm - 109 W/m² -
1788649674 38.33° C 32% 1012.4 hPa 0 mm - 129 W/m² -
1788649371 38.33° C 33% 1012.4 hPa 0 mm - 138 W/m² -
1788649077 37.78° C 34% 1012.4 hPa 0 mm - 162 W/m² -
1788648766 37.78° C 34% 1012.3 hPa 0 mm - 181 W/m² -
1788648465 38.33° C 34% 1012.5 hPa 0 mm - 172 W/m² -
1788648161 38.89° C 34% 1012.3 hPa 0 mm - 209 W/m² -
1788647857 38.89° C 33% 1012.5 hPa 0 mm - 237 W/m² -
1788647554 38.33° C 34% 1012.7 hPa 0 mm - 250 W/m² -
1788647249 38.33° C 34% 1012.5 hPa 0 mm - 266 W/m² -
1788646948 38.89° C 32% 1012.6 hPa 0 mm - 271 W/m² -
1788646644 38.33° C 33% 1012.6 hPa 0 mm - 283 W/m² -
1788646341 38.33° C 33% 1012.4 hPa 0 mm - 284 W/m² -
1788646037 38.33° C 33% 1012.7 hPa 0 mm - 305 W/m² -
1788645732 37.78° C 33% 1012.6 hPa 0 mm - 271 W/m² -
1788645432 38.33° C 32% 1012.7 hPa 0 mm - 77 W/m² -
1788645128 38.89° C 31% 1012.5 hPa 0 mm - 76 W/m² -
1788644823 39.44° C 30% 1012.8 hPa 0 mm - 84 W/m² -
1788644518 40° C 30% 1012.9 hPa 0 mm - 358 W/m² -
1788644214 39.44° C 30% 1012.9 hPa 0 mm - 396 W/m² -

* Rain latest hour (hover to see other rain measurements)
** Current wind speed in m/s (hover to see current wind gust speed)